Regional Weather Roundup
Issued by NWS

Home | Current Version | Previous Version | Text Only | Print | Product List | Glossary On
Versions: 1 2 3 4 5 6 7 8 9 10 11 12 13 14 15 16 17 18 19 20 21 22 23 24 25 26 27 28 29 30 31 32 33 34 35 36 37 38 39 40 41 42 43 44 45 46 47 48 49 50
000
ASUS43 KDTX 231210
RWRMI
MICHIGAN HOURLY REGIONAL WEATHER ROUNDUP
NATIONAL WEATHER SERVICE DETROIT/PONTIAC MI
800 AM EDT WED APR 23 2014

NOTE: "FAIR" INDICATES FEW OR NO CLOUDS BELOW 12,000 FEET WITH NO
SIGNIFICANT WEATHER AND/OR OBSTRUCTION TO VISIBILITY.

MIZ047>049-052>055-059>063-066>070-074>076-081>083-231300-
SOUTHEAST LOWER MICHIGAN

CITY           SKY/WX    TMP DP  RH WIND       PRES   REMARKS
ADRIAN         CLOUDY    36  28  73 N14       30.07R
6HR MIN TEMP:  35; 6HR MAX TEMP:  38;

ALMA           SUNNY     33  28  83 NW8       30.11R
ANN ARBOR      CLOUDY    36  28  73 N9        30.06R
BAD AXE        SUNNY     36  29  77 N13G18    30.04R
6HR MIN TEMP:  34; 6HR MAX TEMP:  37;

DETROIT CITY   CLOUDY    40  28  62 NW13G20   30.05R
6HR MIN TEMP:  40; 6HR MAX TEMP:  42;

DETROIT        CLOUDY    39  29  67 NW13G21   30.06R
6HR MIN TEMP:  38; 6HR MAX TEMP:  41;

FLINT          CLOUDY    37  28  70 N8        30.07R
6HR MIN TEMP:  36; 6HR MAX TEMP:  38;

GROSSE ILE     CLOUDY    39  30  70 NW13G18   30.04R
HILLSDALE      SUNNY     35  28  77 N12       30.06R
HOWELL         CLOUDY    33  29  83 NW10      30.07R
6HR MIN TEMP:  33; 6HR MAX TEMP:  36;


CITY           SKY/WX    TMP DP  RH WIND       PRES   REMARKS
JACKSON        SUNNY     33  27  78 NW7       30.08R
6HR MIN TEMP:  32; 6HR MAX TEMP:  35;

LAMBERTVILLE   CLOUDY    37  30  75 N12G17    30.07R
LANSING        SUNNY     33  27  78 NW8       30.10R
6HR MIN TEMP:  31; 6HR MAX TEMP:  36;

LAPEER         NOT AVBL
MASON          SUNNY     33  29  83 NW9       30.09R
MONROE         CLOUDY    37  30  75 NW14      30.05R
MT. CLEMENS    CLOUDY    38  30  73 NW12      30.02R
6HR MIN TEMP:  38; 6HR MAX TEMP:  39;

PONTIAC        CLOUDY    36  28  73 N9        30.03R
6HR MIN TEMP:  35; 6HR MAX TEMP:  37;

PORT HOPE        N/A     37  30  75 N7        30.02
6HR MIN TEMP:  36; 6HR MAX TEMP:  38;

PORT HURON     CLOUDY    37  30  75 N7        30.03R
TRI CITIES     SUNNY     35  28  75 NW10      30.09R
6HR MIN TEMP:  33; 6HR MAX TEMP:  37;

YPSILANTI      CLOUDY    40  28  62 N12       30.06R
6HR MIN TEMP:  39; 6HR MAX TEMP:  41;

$$
MIZ043>046-050>051-056>058-064>065-071>073-077>080-231300-
SOUTHWEST LOWER MICHIGAN

CITY           SKY/WX    TMP DP  RH WIND       PRES   REMARKS
BATTLE CREEK   SUNNY     33  26  75 N8        30.10R
6HR MIN TEMP:  31; 6HR MAX TEMP:  37;

BENTON HARBOR  SUNNY     34  30  85 VRB7      30.13S
6HR MIN TEMP:  33; 6HR MAX TEMP:  37;

BIG RAPIDS     SUNNY     32  27  82 NW5       30.11R
6HR MIN TEMP:  29; 6HR MAX TEMP:  33;

COLDWATER      SUNNY     33  28  81 N8        30.09R
6HR MIN TEMP:  31; 6HR MAX TEMP:  37;

HOLLAND        SUNNY     36  27  69 VRB5      30.14R
6HR MIN TEMP:  34; 6HR MAX TEMP:  38;

GRAND RAPIDS   MOSUNNY   34  27  75 N9        30.12R
6HR MIN TEMP:  32; 6HR MAX TEMP:  35;

KALAMAZOO      SUNNY     34  26  72 N10       30.11R
6HR MIN TEMP:  31; 6HR MAX TEMP:  37;

MARSHALL       SUNNY     32  27  80 NW5       30.09R
MUSKEGON       MOSUNNY   35  26  69 N7        30.15R
6HR MIN TEMP:  33; 6HR MAX TEMP:  36;

$$
MIZ016>042-231300-
NORTHERN LOWER MICHIGAN

CITY           SKY/WX    TMP DP  RH WIND       PRES   REMARKS
ALPENA         SUNNY     33  24  69 N10       30.08R
6HR MIN TEMP:  31; 6HR MAX TEMP:  35;

BEAVER ISLAND  SUNNY     32  25  74 NW6       30.15R
6HR MIN TEMP:  29; 6HR MAX TEMP:  32;

BELLAIRE       SUNNY     31  28  90 CALM      30.13R
6HR MIN TEMP:  28; 6HR MAX TEMP:  33;

CADILLAC       SUNNY     30  28  90 NW6       30.09R
CHARLEVOIX     SUNNY     32  29  88 N3        30.16R
6HR MIN TEMP:  30; 6HR MAX TEMP:  32;

FRANKFORT      SUNNY     32  30  91 CALM      30.15R
GAYLORD        SUNNY     30  21  69 VRB5      30.08R
6HR MIN TEMP:  28; 6HR MAX TEMP:  30;

GRAYLING       SUNNY     31  25  80 NW7       30.09R
HARBOR SPRINGS SUNNY     33  24  70 N6        30.11R
HOUGHTON LAKE  SUNNY     32  25  75 N7        30.09R
6HR MIN TEMP:  30; 6HR MAX TEMP:  33;

MANISTEE       SUNNY     34  28  80 NW6       30.15R
OSCODA         SUNNY     35  27  71 N9        30.06R
PELLSTON       SUNNY     32  22  66 NW6       30.12R
6HR MIN TEMP:  27; 6HR MAX TEMP:  32;

TRAVERSE CITY  SUNNY     33  27  78 NW5       30.13R
6HR MIN TEMP:  28; 6HR MAX TEMP:  34;

$$
MIZ007>008-015-231300-
EASTERN UPPER MICHIGAN

CITY           SKY/WX    TMP DP  RH WIND       PRES   REMARKS
KINROSS        SUNNY     30  25  80 NW7       30.11R
6HR MIN TEMP:  27; 6HR MAX TEMP:  34;

MACKINAC ISLAN SUNNY     31  23  73 N6        30.10R
6HR MIN TEMP:  28; 6HR MAX TEMP:  31;

NEWBERRY       SUNNY     28  21  73 NW5       30.12R
6HR MIN TEMP:  27; 6HR MAX TEMP:  30;

S. S. MARIE    SUNNY     32  16  51 NW3       30.10R
6HR MIN TEMP:  29; 6HR MAX TEMP:  33;

$$
MIZ004>006-011>014-085-231300-
CENTRAL UPPER MICHIGAN

CITY           SKY/WX    TMP DP  RH WIND       PRES   REMARKS
MANISTIQUE     SUNNY     29  25  87 NW7       30.15R
6HR MIN TEMP:  25; 6HR MAX TEMP:  29;

ESCANABA       SUNNY     28  25  86 N5        30.16R
6HR MIN TEMP:  27; 6HR MAX TEMP:  30;

MENOMINEE      SUNNY     30  25  80 N7        30.18R
6HR MIN TEMP:  28; 6HR MAX TEMP:  30;

$$
MIZ001>003-009>011-084-231300-
WESTERN UPPER MICHIGAN

CITY           SKY/WX    TMP DP  RH WIND       PRES   REMARKS
IRON MOUNTAIN  SUNNY     26  22  84 CALM      30.16R
6HR MIN TEMP:  18; 6HR MAX TEMP:  26;

HOUGHTON       SUNNY     28  22  78 NW5       30.15S
6HR MIN TEMP:  22; 6HR MAX TEMP:  30;

COPPER HARBOR    N/A     33  25  72 W5        30.16R
6HR MIN TEMP:  29; 6HR MAX TEMP:  33;

IRONWOOD       CLEAR     27  21  80 E3        30.12R
6HR MIN TEMP:  25; 6HR MAX TEMP:  28;

$$

ABBREVIATIONS USED IN REMARKS
   TC - TEMPERATURE IN CELSIUS
  WCI - WIND CHILL INDEX
   HX - HEAT INDEX
  VSB - VISIBILITY




USA.gov is the U.S. government's official web portal to all federal, state and local government web resources and services.